Home > Weather > Charleston > Past weeks

Flag for USA Past Weather in Charleston, South Carolina, USA — Yesterday and Last 2 Weeks

Now
81 °F

Passing clouds.


Feels Like: 86 °F
Forecast: 79 / 93 °F
Wind: 9 mph from Southwest

Location: Charleston Air Force Base Reporting Station

Current Time: Jun 25, 2016 at 6:35:33 AM

Latest Report: Jun 25, 2016 at 5:56 AM


Visibility: 10 mi

Pressure: 30.01 "Hg

Humidity: 79%

Dew Point: 74 °F

Location of CharlestonLocation

Past Weather in Charleston — Graph

°F

Charleston Temperature Yesterday

Maximum temperature yesterday: 95 °F (at 1:56 PM)
Minimum temperature yesterday: 80 °F (at 3:56 AM)
Average temperature yesterday: 86 °F

High & Low Weather Summary for the Past Weeks

 TemperatureHumidityPressure
High98 °F (Jun 17, 2:56 PM)91% (Jun 11, 3:56 AM)30.31 "Hg (Jun 11, 3:56 AM)
Low66 °F (Jun 20, 12:56 AM)35% (Jun 20, 2:56 PM)29.70 "Hg (Jun 17, 2:56 PM)
Average82 °F67%30.02 "Hg
* Reported Jun 10 4:56 AM — Jun 25 4:56 AM, Charleston, Weather by CustomWeather, © 2016

Note: Actual official high and low records may vary slightly from our data, if they occured in-between our weather recording intervals... More about our weather records

Advertising

Charleston Weather History for the Previous 24 Hours

Scroll right to see more
 ConditionsComfort  
Time TempWeatherWind HumidityBarometerVisibility
4:56 AM
Sat, Jun 25
81 °FPassing clouds.8 mph79%29.99 "Hg10 mi
3:56 AM82 °FPassing clouds.13 mph77%29.98 "Hg10 mi
2:56 AM82 °FPassing clouds.9 mph82%29.99 "Hg10 mi
1:56 AM81 °FPassing clouds.10 mph82%30.00 "Hg10 mi
12:56 AM81 °FPassing clouds.9 mph79%30.01 "Hg10 mi
11:56 PM
Fri, Jun 24
82 °FPassing clouds.7 mph74%30.02 "Hg10 mi
10:56 PM81 °FPartly cloudy.8 mph72%30.03 "Hg10 mi
9:56 PM80 °FPartly cloudy.7 mph69%30.02 "Hg10 mi
8:56 PM80 °FBroken clouds.13 mph76%30.03 "Hg10 mi
7:56 PM87 °FBroken clouds.10 mph63%30.00 "Hg10 mi
6:56 PM90 °FScattered clouds.14 mph57%29.97 "Hg10 mi
5:56 PM94 °FScattered clouds.14 mph41%29.95 "Hg10 mi
4:56 PM95 °FPassing clouds.14 mph40%29.96 "Hg10 mi
3:56 PM95 °FScattered clouds.13 mph41%29.98 "Hg10 mi
2:56 PM94 °FScattered clouds.13 mph41%30.00 "Hg10 mi
1:56 PM95 °FScattered clouds.14 mph41%30.01 "Hg10 mi
12:56 PM94 °FPartly sunny.13 mph46%30.02 "Hg10 mi
11:56 AM92 °FPartly sunny.12 mph47%30.03 "Hg10 mi
10:56 AM90 °FPartly sunny.10 mph52%30.03 "Hg10 mi
9:56 AM86 °FPartly sunny.12 mph57%30.03 "Hg10 mi
8:56 AM84 °FPartly sunny.13 mph61%30.03 "Hg10 mi
7:56 AM82 °FScattered clouds.9 mph67%30.03 "Hg10 mi
6:56 AM80 °FPassing clouds.10 mph74%30.03 "Hg10 mi
Weather by CustomWeather, © 2016

See weather overviewHow to use our weather pages